| time (UTC) | temp C | wind direction | speed KPH | gust KPH | rain 1hr cm | rain 24hr cm | rain mn cm | humidity % | barometer mb |
| 20260510131554 | 18 | 0.0 | 0.0 | 0.00 | 0.03 | 0.03 | 89 | 1016.5 | |
| 20260510130053 | 18 | 0.0 | 0.0 | 0.00 | 0.03 | 0.03 | 88 | 1016.2 | |
| 20260510124555 | 17 | 0.0 | 0.0 | 0.00 | 0.03 | 0.03 | 89 | 1015.5 | |
| 20260510123056 | 17 | 0.0 | 0.0 | 0.00 | 0.03 | 0.03 | 88 | 1014.6 | |
| 20260510121555 | 17 | 0.0 | 0.0 | 0.00 | 0.03 | 0.03 | 88 | 1013.9 | |
| 20260510120057 | 17 | 0.0 | 0.0 | 0.00 | 0.03 | 0.03 | 89 | 1013.3 | |
| 20260510114557 | 17 | 0.0 | 0.0 | 0.00 | 0.03 | 0.03 | 90 | 1013.1 | |
| 20260510113058 | 17 | 0.0 | 0.0 | 0.00 | 0.03 | 0.03 | 90 | 1013.1 | |
| 20260510111555 | 17 | 0.0 | 0.0 | 0.00 | 0.03 | 0.03 | 89 | 1013.4 | |
| 20260510110057 | 17 | 0.0 | 0.0 | 0.00 | 0.03 | 0.03 | 88 | 1013.7 | |
| 20260510104556 | 17 | 0.0 | 0.0 | 0.00 | 0.03 | 0.03 | 88 | 1013.5 | |
| 20260510103058 | 17 | 0.0 | 0.0 | 0.00 | 0.03 | 0.03 | 88 | 1013.3 | |
| 20260510101559 | 17 | 0.0 | 0.0 | 0.00 | 0.03 | 0.03 | 88 | 1013.2 | |
| 20260510100125 | 17 | 0.0 | 0.0 | 0.00 | 0.03 | 0.03 | 86 | 1013.1 | |
| 20260510094558 | 17 | 0.0 | 0.0 | 0.00 | 0.03 | 0.03 | 85 | 1013.4 | |
| 20260510093100 | 17 | 0.0 | 0.0 | 0.00 | 0.03 | 0.03 | 85 | 1013.4 | |
| 20260510091559 | 17 | 0.0 | 0.0 | 0.00 | 0.03 | 0.03 | 86 | 1012.1 | |
| 20260510090055 | 17 | 0.0 | 0.0 | 0.00 | 0.03 | 0.03 | 88 | 1011.4 | |
| 20260510084557 | 17 | 0.0 | 0.0 | 0.03 | 0.03 | 0.03 | 88 | 1010.9 | |
| 20260510083102 | 17 | 0.0 | 0.0 | 0.03 | 0.03 | 0.03 | 88 | 1011.5 | |
| 20260510081557 | 17 | 0.0 | 0.0 | 0.03 | 0.03 | 0.03 | 87 | 1012.3 | |
| 20260510080059 | 17 | 0.0 | 0.0 | 0.00 | 0.00 | 0.00 | 83 | 1011.8 | |
| 20260510074600 | 18 | 0.0 | 0.0 | 0.00 | 0.00 | 0.00 | 80 | 1011.4 | |
| 20260510073057 | 18 | 0.0 | 0.0 | 0.00 | 0.00 | 0.00 | 77 | 1013.0 | |
| 20260510071608 | 19 | 0.0 | 0.0 | 0.00 | 0.00 | 0.00 | 78 | 1014.2 | |
| 20260510070058 | 20 | 0.0 | 0.0 | 0.00 | 0.00 | 0.00 | 75 | 1014.6 | |
| 20260510064608 | 20 | 0.0 | 0.0 | 0.00 | 0.00 | 0.00 | 73 | 1014.3 | |
| 20260510063051 | 20 | 0.0 | 0.0 | 0.00 | 0.00 | 0.00 | 70 | 1014.0 | |
| 20260510061557 | 20 | 0.0 | 0.0 | 0.00 | 0.00 | 0.00 | 70 | 1013.2 | |
| 20260510060054 | 20 | 0.0 | 0.0 | 0.00 | 0.00 | 0.00 | 66 | 1013.4 | |
| 20260510054555 | 20 | 0.0 | 0.0 | 0.00 | 0.00 | 0.00 | 65 | 1012.7 | |
| 20260510053052 | 20 | 0.0 | 0.0 | 0.00 | 0.00 | 0.00 | 65 | 1012.1 | |
| 20260510051554 | 19 | 0.0 | 0.0 | 0.00 | 0.00 | 0.00 | 66 | 1011.8 | |
| 20260510050056 | 20 | 0.0 | 0.0 | 0.00 | 0.00 | 0.00 | 67 | 1012.1 | |
| 20260510044552 | 20 | 0.0 | 0.0 | 0.00 | 0.00 | 0.00 | 64 | 1012.4 | |
| 20260510043057 | 20 | 0.0 | 0.0 | 0.00 | 0.00 | 0.00 | 63 | 1012.3 | |
| 20260510041552 | 20 | 0.0 | 0.0 | 0.00 | 0.00 | 0.00 | 63 | 1012.1 | |
| 20260510040059 | 21 | 0.0 | 0.0 | 0.00 | 0.00 | 0.00 | 60 | 1012.0 | |
| 20260510034600 | 20 | 0.0 | 0.0 | 0.00 | 0.00 | 0.00 | 58 | 1011.4 | |
| 20260510033113 | 20 | 0.0 | 0.0 | 0.00 | 0.00 | 0.00 | 59 | 1011.3 | |
| 20260510031557 | 20 | 0.0 | 0.0 | 0.00 | 0.00 | 0.00 | 60 | 1011.2 | |
| 20260510030055 | 21 | 0.0 | 0.0 | 0.00 | 0.00 | 0.00 | 59 | 1011.0 | |
| 20260510024557 | 21 | 0.0 | 0.0 | 0.00 | 0.00 | 0.00 | 58 | 1010.4 | |
| 20260510023052 | 21 | 0.0 | 0.0 | 0.00 | 0.00 | 0.00 | 56 | 1009.8 | |
| 20260510021552 | 21 | 0.0 | 0.0 | 0.00 | 0.00 | 0.00 | 55 | 1009.7 | |
| 20260510020053 | 21 | 0.0 | 0.0 | 0.00 | 0.00 | 0.00 | 54 | 1009.5 | |
| 20260510014552 | 21 | 0.0 | 0.0 | 0.00 | 0.00 | 0.00 | 52 | 1009.4 | |
| 20260510013054 | 22 | 0.0 | 0.0 | 0.00 | 0.00 | 0.00 | 52 | 1009.4 | |
| 20260510011556 | 22 | 0.0 | 0.0 | 0.00 | 0.00 | 0.00 | 50 | 1009.4 | |
| 20260510010054 | 23 | 0.0 | 0.0 | 0.00 | 0.00 | 0.00 | 47 | 1009.2 | |
| 20260510004552 | 24 | 0.0 | 0.0 | 0.00 | 0.00 | 0.00 | 46 | 1009.0 | |
| 20260510003111 | 25 | 0.0 | 0.0 | 0.00 | 0.00 | 0.00 | 41 | 1009.0 | |
| 20260510001554 | 26 | 0.0 | 0.0 | 0.00 | 0.00 | 0.00 | 40 | 1009.0 | |
| 20260510000100 | 26 | 0.0 | 0.0 | 0.00 | 0.00 | 0.00 | 37 | 1009.1 | |
| 20260509234607 | 26 | 0.0 | 0.0 | 0.00 | 0.00 | 0.00 | 36 | 1009.3 | |
| 20260509233053 | 27 | 0.0 | 0.0 | 0.00 | 0.00 | 0.00 | 34 | 1009.4 | |
| 20260509231555 | 27 | 0.0 | 0.0 | 0.00 | 0.00 | 0.00 | 32 | 1009.4 | |
| 20260509230059 | 27 | 0.0 | 0.0 | 0.00 | 0.00 | 0.00 | 36 | 1009.4 | |
| 20260509224552 | 27 | 0.0 | 0.0 | 0.00 | 0.00 | 0.00 | 39 | 1009.4 | |
| 20260509223058 | 27 | 0.0 | 0.0 | 0.00 | 0.00 | 0.00 | 38 | 1009.3 | |
| 20260509221553 | 27 | 0.0 | 0.0 | 0.00 | 0.00 | 0.00 | 40 | 1009.6 | |
| 20260509220056 | 28 | 0.0 | 0.0 | 0.00 | 0.00 | 0.00 | 38 | 1009.6 | |
| 20260509214555 | 28 | 0.0 | 0.0 | 0.00 | 0.00 | 0.00 | 35 | 1009.6 | |
| 20260509213058 | 28 | 0.0 | 0.0 | 0.00 | 0.00 | 0.00 | 34 | 1009.7 | |
| 20260509211602 | 28 | 0.0 | 0.0 | 0.00 | 0.00 | 0.00 | 35 | 1009.9 | |
| 20260509210056 | 28 | 0.0 | 0.0 | 0.00 | 0.00 | 0.00 | 35 | 1010.1 | |
| 20260509204553 | 28 | 0.0 | 0.0 | 0.00 | 0.00 | 0.00 | 32 | 1010.2 | |
| 20260509203055 | 28 | 0.0 | 0.0 | 0.00 | 0.00 | 0.00 | 37 | 1010.3 | |
| 20260509201554 | 28 | 0.0 | 0.0 | 0.00 | 0.00 | 0.00 | 37 | 1010.4 | |
| 20260509200056 | 28 | 0.0 | 0.0 | 0.00 | 0.00 | 0.00 | 35 | 1010.6 | |
| 20260509194553 | 28 | 0.0 | 0.0 | 0.00 | 0.00 | 0.00 | 38 | 1010.9 | |
| 20260509193055 | 28 | 0.0 | 0.0 | 0.00 | 0.00 | 0.00 | 34 | 1011.0 | |
| 20260509191554 | 28 | 0.0 | 0.0 | 0.00 | 0.00 | 0.00 | 39 | 1011.1 | |
| 20260509190053 | 28 | 0.0 | 0.0 | 0.00 | 0.00 | 0.00 | 51 | 1010.9 | |
| 20260509184553 | 27 | 0.0 | 0.0 | 0.00 | 0.00 | 0.00 | 48 | 1011.2 | |
| 20260509183138 | 27 | 0.0 | 0.0 | 0.00 | 0.00 | 0.00 | 48 | 1011.2 | |
| 20260509181609 | 27 | 0.0 | 0.0 | 0.00 | 0.00 | 0.00 | 61 | 1011.3 | |
| 20260509180054 | 26 | 0.0 | 0.0 | 0.00 | 0.00 | 0.00 | 61 | 1011.4 | |
| 20260509174554 | 26 | 0.0 | 0.0 | 0.00 | 0.00 | 0.00 | 61 | 1011.5 | |
| 20260509173104 | 25 | 0.0 | 0.0 | 0.00 | 0.00 | 0.00 | 63 | 1012.0 | |
| 20260509171558 | 25 | 0.0 | 0.0 | 0.00 | 0.00 | 0.00 | 62 | 1012.1 | |
| 20260509170056 | 25 | 0.0 | 0.0 | 0.00 | 0.00 | 0.00 | 63 | 1012.2 | |
| 20260509164601 | 24 | 0.0 | 0.0 | 0.00 | 0.00 | 0.00 | 70 | 1012.3 | |
| 20260509163059 | 23 | 0.0 | 0.0 | 0.00 | 0.00 | 0.00 | 73 | 1012.3 | |
| 20260509161552 | 23 | 0.0 | 0.0 | 0.00 | 0.00 | 0.00 | 73 | 1012.1 | |
| 20260509160052 | 23 | 0.0 | 0.0 | 0.00 | 0.00 | 0.00 | 74 | 1012.2 | |
| 20260509154556 | 23 | 0.0 | 0.0 | 0.00 | 0.00 | 0.00 | 77 | 1012.1 | |
| 20260509153055 | 22 | 0.0 | 0.0 | 0.00 | 0.00 | 0.00 | 76 | 1011.8 | |
| 20260509151556 | 21 | 0.0 | 0.0 | 0.00 | 0.00 | 0.00 | 79 | 1012.0 | |
| 20260509150052 | 20 | 0.0 | 0.0 | 0.00 | 0.00 | 0.00 | 81 | 1012.0 | |
| 20260509144555 | 20 | 0.0 | 0.0 | 0.00 | 0.00 | 0.00 | 81 | 1012.3 | |
| 20260509143057 | 20 | 0.0 | 0.0 | 0.00 | 0.00 | 0.00 | 83 | 1012.3 | |
| 20260509141606 | 18 | 0.0 | 0.0 | 0.00 | 0.00 | 0.00 | 88 | 1012.2 | |
| 20260509140059 | 17 | 0.0 | 0.0 | 0.00 | 0.00 | 0.00 | 92 | 1012.2 | |
| 20260509134558 | 16 | 0.0 | 0.0 | 0.00 | 0.00 | 0.00 | 94 | 1012.2 | |
| 20260509133058 | 16 | 0.0 | 0.0 | 0.00 | 0.00 | 0.00 | 95 | 1011.9 |